[Date Prev][Date Next][Thread Prev][Thread Next] - [Date Index][Thread Index][Author Index]
2 Line ISS Keps 4-29
- Subject: [sarex] 2 Line ISS Keps 4-29
- From: "Dave Larsen PhD" <doc@xxxxxxxxxxx>
- Date: Thu, 28 Apr 2005 18:35:03 -0700
ISS
1 25544U 98067A 05118.91304830 .00007037 00000-0 58153-4 0 3518
2 25544 051.6444 153.1943 0007880 061.4358 359.5788 15.71592636367930
----
Via the sarex mailing list at AMSAT.ORG courtesy of AMSAT-NA.
To unsubscribe, send "unsubscribe sarex" to Majordomo@amsat.org
AMSAT Home